Location: Benque
(43.2594°N, 0.9178°E)
Time: 21:58:09
(UTC+00:00)

Meteor 2-2 Rocket - Pass Details

Date: 24 January 2020
Orbit: 853 x 928 km, 81.3° (Epoch: 19 February)

Event Time Altitude Azimuth Distance (km) Brightness Sun altitude
Rises 19:26:32 0° 348° (NNW) 3,587 7.6 -27.1°
Reaches altitude 10° 19:29:01 10° 347° (NNW) 2,641 6.9 -27.5°
Maximum altitude 19:35:04 78° 263° (W) 949 4.4 -28.6°
Drops below altitude 10° 19:41:02 10° 177° (S) 2,605 6.7 -29.7°
Sets 19:43:28 0° 176° (S) 3,535 7.4 -30.2°
